FW4704 Weather Reports


time (UTC)temp
C
wind
direction
speed
KPH
gust
KPH
rain 1hr
cm
rain 24hr
cm
rain mn
cm
humidity
%
barometer
mb
20260505041559 10 280 8.0 22.5 0.00 0.00 0.00 95 1011.0
20260505040059 10 274 8.0 16.1 0.00 0.00 0.00 95 1011.1
20260505034557 10 285 8.0 20.9 0.00 0.00 0.00 95 1011.0
20260505033057 10 279 8.0 17.7 0.00 0.00 0.00 95 1011.1
20260505031556 10 269 11.3 17.7 0.00 0.00 0.00 96 1011.1
20260505030055 11 296 8.0 19.3 0.00 0.00 0.00 96 1011.1
20260505024555 11 286 4.8 16.1 0.00 0.00 0.00 96 1011.2
20260505023056 10 280 9.7 24.1 0.00 0.00 0.00 97 1011.2
20260505021554 10 282 11.3 20.9 0.00 0.00 0.00 97 1011.2
20260505020055 10 288 9.7 19.3 0.00 0.00 0.00 97 1011.0
20260505014557 10 296 11.3 24.1 0.00 0.00 0.00 97 1011.1
20260505013055 10 279 9.7 20.9 0.00 0.00 0.00 97 1011.2
20260505011552 11 298 14.5 22.5 0.00 0.00 0.00 97 1011.2
20260505010108 11 293 14.5 25.7 0.00 0.00 0.00 98 1011.4
20260505004547 11 281 16.1 29.0 0.00 0.00 0.00 98 1011.7
20260505003047 11 262 9.7 20.9 0.00 0.00 0.00 98 1011.8
20260505001543 11 290 8.0 17.7 0.00 0.00 0.00 98 1012.0
20260505000047 10 289 8.0 22.5 0.00 0.00 0.00 98 1012.0
20260504234541 10 277 9.7 22.5 0.00 0.03 0.00 98 1012.1
20260504233040 10 261 8.0 19.3 0.00 0.03 0.00 98 1012.1
20260504231543 10 305 8.0 24.1 0.00 0.03 0.00 98 1012.2
20260504230042 10 294 9.7 19.3 0.00 0.03 0.00 98 1012.3
20260504224535 10 277 14.5 22.5 0.00 0.03 0.00 98 1012.4
20260504223034 10 277 12.9 22.5 0.00 0.03 0.00 98 1012.4
20260504221545 10 294 9.7 25.7 0.00 0.03 0.00 98 1012.6
20260504220027 10 302 17.7 30.6 0.00 0.03 0.03 97 1012.6
20260504214525 11 243 11.3 22.5 0.00 0.03 0.03 97 1012.7
20260504213027 11 292 9.7 20.9 0.00 0.03 0.03 97 1012.8
20260504211522 11 252 12.9 20.9 0.00 0.03 0.03 97 1012.8
20260504210023 11 303 11.3 22.5 0.00 0.03 0.03 97 1012.8
20260504204522 11 294 16.1 29.0 0.00 0.03 0.03 97 1012.9
20260504203019 11 259 11.3 29.0 0.00 0.03 0.03 98 1012.9
20260504201517 11 286 11.3 25.7 0.00 0.03 0.03 98 1013.0
20260504200017 11 242 11.3 20.9 0.00 0.03 0.03 98 1012.8
20260504194519 11 331 12.9 24.1 0.00 0.03 0.03 98 1012.6
20260504193016 11 288 14.5 22.5 0.00 0.03 0.03 98 1012.5
20260504191525 11 277 16.1 25.7 0.00 0.03 0.03 98 1012.4
20260504190014 11 313 17.7 29.0 0.00 0.03 0.03 97 1012.4
20260504184517 11 280 19.3 29.0 0.00 0.03 0.03 98 1012.4
20260504183011 11 302 14.5 25.7 0.00 0.03 0.03 97 1012.2
20260504181514 11 288 19.3 32.2 0.00 0.03 0.03 97 1012.2
20260504180107 12 293 11.3 27.4 0.00 0.03 0.03 98 1012.1
20260504174507 12 155 11.3 24.1 0.00 0.03 0.03 98 1012.2
20260504173007 12 302 19.3 32.2 0.00 0.03 0.03 98 1012.3
20260504171506 12 300 20.9 29.0 0.00 0.03 0.03 97 1012.4
20260504150112 15 258 9.7 20.9 0.00 0.28 0.03 93 1012.2
20260504081538 12 242 4.8 8.0 0.00 0.53 0.03 100 1012.6
20260504050015 10 176 0.0 3.2 0.00 0.66 0.03 100 1010.9